Content
SEND FEEDBACK

Daily
Averages
Monthly
Summary
United States of America

SWANNANOA, NORTH CAROLINA


Home > North America > United States > North Carolina
Elevation: 2265 feet     Latitude: 35 36N     Longitude: 082 32W

WEATHER
 
SELECT A DAY
Number of Records: 225,823;   Date Range: 1/1/95 - 7/29/14
 
SHARE

PRINT THIS DATA

[ ← Previous Day ]
WEATHER ALMANAC - FEBRUARY 8, 2013
[ Next Day → ]
[ °C ]   °F
Weather ElementAverageHighLow
Temperature41.8 °F52 °F (3:54 pm)34 °F (11:54 pm)
Dewpoint37.3 °F42.8 °F (10:34 am)25 °F (11:54 pm)
Humidity85.8 %100 % (12:54 am)45 % (3:54 pm)
Barometer29.96 in30.13 in (11:54 pm)29.91 in (3:45 am)
Wind Speed6.8 mph21.9 mph (11:54 pm)
Wind Gust36.8 mph (10:54 pm)
Weather ElementAverage
Visibility7.9 mi
Wind DirectionSSE (153.6 °)

Weather ElementTotal
Precipitation---
Heating Degree Days22 (Base 65)
Averaged from 44 records on February 8, 2013
WEATHER CONDITIONS BREAKOUT
WIND DIRECTION BREAKOUT
WEATHER BY HOUR - FEBRUARY 8, 2013
[ °C ]   °F
Local TimeTemperatureDewpointHumidityBarometerVisibilityWind DirectionWind SpeedGust SpeedPrecipitationEventsConditions
12:20 AM42.8 °F41.0 °F93 %29.97 in10.0 miCalmOvercast
12:29 AM42.8 °F41.0 °F93 %29.97 in10.0 miVariable3.5 mphOvercast
12:37 AM42.8 °F39.2 °F87 %29.96 in10.0 miCalmOvercast
12:54 AM41.0 °F41.0 °F100 %29.96 in6.0 miCalmOvercast
1:54 AM42.1 °F39.0 °F89 %29.95 in10.0 miCalmOvercast
2:54 AM41.0 °F39.0 °F93 %29.93 in10.0 miCalm0.00 inRainLight Rain
3:45 AM41.0 °F39.2 °F93 %29.91 in10.0 miCalm0.00 inOvercast
3:54 AM41.0 °F39.0 °F93 %29.92 in10.0 miCalm0.00 inOvercast
4:54 AM41.0 °F39.9 °F96 %29.92 in10.0 miCalm0.00 inOvercast
5:54 AM41.0 °F39.9 °F96 %29.91 in10.0 miCalm0.00 inOvercast
6:43 AM39.2 °F39.2 °F100 %29.91 in6.0 miCalmMostly Cloudy
6:54 AM39.9 °F37.9 °F93 %29.91 in6.0 miCalmMostly Cloudy
6:59 AM39.2 °F37.4 °F93 %29.91 in1.2 miCalmMostly Cloudy
7:04 AM37.4 °F37.4 °F100 %29.91 in0.5 miCalmFogFog
7:18 AM37.4 °F37.4 °F100 %29.91 in0.2 miCalmFogFog
7:34 AM35.6 °F35.6 °F100 %29.91 in0.2 miSW (230°)4.6 mphFogFog
7:44 AM35.6 °F35.6 °F100 %29.92 in0.2 miWSW (240°)3.5 mphFogFog
7:54 AM37.0 °F37.0 °F100 %29.94 in1.0 miCalmOvercast
7:57 AM37.4 °F37.4 °F100 %29.94 in2.0 miCalmOvercast
8:02 AM37.4 °F37.4 °F100 %29.94 in3.0 miCalmOvercast
8:10 AM39.2 °F39.2 °F100 %29.93 in4.0 miCalmOvercast
8:54 AM41.0 °F39.9 °F96 %29.94 in8.0 miEast (100°)3.5 mphMostly Cloudy
9:15 AM42.8 °F41.0 °F93 %29.94 in10.0 miCalmMostly Cloudy
9:33 AM42.8 °F41.0 °F93 %29.94 in10.0 miCalmOvercast
9:45 AM42.8 °F41.0 °F93 %29.95 in10.0 miCalmOvercast
9:54 AM44.1 °F41.0 °F89 %29.94 in10.0 miCalmOvercast
10:34 AM46.4 °F42.8 °F87 %29.94 in10.0 miNorth (350°)5.8 mph0.00 inOvercast
10:41 AM46.4 °F42.8 °F87 %29.94 in10.0 miNorth (360°)6.9 mph0.00 inOvercast
10:54 AM46.0 °F42.1 °F86 %29.95 in10.0 miNNW (330°)10.4 mph0.00 inOvercast
11:54 AM48.0 °F42.1 °F80 %29.93 in10.0 miNorth (350°)16.1 mphOvercast
12:01 PM48.2 °F42.8 °F82 %29.94 in10.0 miNorth (350°)16.1 mphOvercast
12:54 PM46.9 °F42.1 °F83 %29.93 in10.0 miNNW (330°)9.2 mphOvercast
1:54 PM46.9 °F42.1 °F83 %29.93 in10.0 miNorth (350°)17.3 mph24.2 mphOvercast
2:09 PM46.4 °F42.8 °F87 %29.93 in10.0 miNNW (330°)18.4 mph25.3 mph0.00 inRainLight Rain
2:54 PM48.9 °F37.0 °F64 %29.93 in10.0 miNNW (340°)17.3 mph26.5 mph0.00 inClear
3:54 PM52.0 °F30.9 °F45 %29.94 in10.0 miNW (310°)15.0 mph25.3 mphPartly Cloudy
4:54 PM48.9 °F28.9 °F46 %29.96 in10.0 miNNW (340°)20.7 mph28.8 mphClear
5:54 PM46.0 °F27.0 °F47 %29.99 in10.0 miNNW (340°)17.3 mph21.9 mphClear
6:54 PM42.1 °F30.0 °F62 %30.04 in10.0 miNorth (350°)17.3 mph23.0 mphClear
7:54 PM37.9 °F30.0 °F73 %30.07 in10.0 miNorth (360°)18.4 mph28.8 mphClear
8:54 PM37.0 °F28.0 °F70 %30.09 in10.0 miNorth (350°)17.3 mph32.2 mphClear
9:54 PM36.0 °F27.0 °F70 %30.12 in10.0 miNorth (350°)18.4 mph33.4 mphPartly Cloudy
10:54 PM35.1 °F26.1 °F70 %30.12 in10.0 miNorth (350°)18.4 mph36.8 mphClear
11:54 PM34.0 °F25.0 °F70 %30.13 in10.0 miNorth (350°)21.9 mph33.4 mphClear
Hourly data recorded from KAVL, located miles away from Swannanoa, North Carolina







STORIES FROM OUR PARTNERS